"Pseudo-MPEC" for 2010-058A = NORAD 37212

Created 2017 Mar 16 15:37:14 UT using Find_Orb

This was originally reported on NEOCP under the designations DR0143 and DR0144.

Astrometry:
2010-058A     C2017 03 03.25024910 08 11.96 +64 13 59.4          11.6 V      V03
2010-058A     C2017 03 03.25070010 08 57.06 +64 16 31.4          11.6 V      V03
2010-058A     C2017 03 03.25130210 09 58.20 +64 19 55.0          11.6 V      V03
2010-058A     C2017 03 03.25180010 10 49.61 +64 22 44.7          11.6 V      V03
2010-058A     C2017 03 03.25235510 11 45.89 +64 25 48.5          11.6 V      V03
2010-058A     C2017 03 03.26247110 29 04.20 +65 16 06.5          11.9 V      V03
2010-058A     C2017 03 03.26296910 29 55.40 +65 18 18.0          11.9 V      V03
2010-058A     C2017 03 03.26345510 30 46.30 +65 20 27.7          11.9 V      V03
2010-058A     C2017 03 03.26399910 31 42.06 +65 22 47.8          11.9 V      V03
2010-058A     C2017 03 03.27580410 52 05.02 +66 06 47.0          12.0 V      V03
2010-058A     C2017 03 03.27603610 52 29.83 +66 07 32.4          12.1 V      V03
2010-058A     C2017 03 03.27629110 52 55.08 +66 08 18.2          12.1 V      V03
2010-058A     C2017 03 03.27652210 53 20.15 +66 09 03.5          12.1 V      V03
2010-058A     C2017 03 03.27676510 53 45.19 +66 09 48.3          12.1 V      V03
2010-058A     C2017 03 03.27706610 54 15.42 +66 10 41.7          12.1 V      V03
2010-058A     C2017 03 030;Astrometry979N,e!@cRo7l\DTNg(we^p^-EW[hhP[Yi0?Te_qV03
2010-058A     C2017 03 03=.cdjasN!p:_@Rl?/redacted;M.wXC0G-OVMhMjwj.AR'n(dtA+V03
2010-058A     C2017 03 03L3J\:23r0Dt=M*j15mwhTX]4:!/[`[Heqcw+5a)cY0m#%ls[j5y#V03
2010-058A     C2017 03 03=2xaHGsdWXS?a=xLd!RiHL$8Bm:Aq1u)see06+1%Ot](9yEkKdF#V03
2010-058A     C2017 03 03Sn)X`KKUFvfBZP2e;ODj#\sp[ra`\a=j0GJL'YM$FI^P[#lNEOCPV03

Station data:
(V03) Big Water  (N37.083376 W111.668600)  US/Utah.  Observer D. Rankin.
   0.30-m refractor + CCD.

Orbital elements:  2010-058A = NORAD 37212
   Perigee 2017 Mar 3.091908 +/- 0.000476 TT =  2:12:20 (JD 2457815.591908)
Epoch 2017 Mar  3.0 TT = JDT 2457815.5                        Gray
M 293.7137476 +/- 0.47              (J2000 equatorial)
n 721.2207887187 +/- 2.18           Peri.  274.1675410 +/- 0.11
a 26580.185970 +/- 53.6             Node    86.9007172 +/- 0.010
e   0.690774826 +/- 0.000915        Incl.   63.2027961 +/- 0.008
P 718.77m/0.499d           H 28.0   G  0.15   U 13.3
q 8219.2626102 +/- 39.3    Q 44941.109330 +/- 71.9
From 20 observations 2017 Mar. 3 (55.5 min); mean residual 1".868
Residuals in arcseconds: 
170303 V03 3.84+ 1.93+    170303 V03 3.73+ 1.40+    170303 V03 5.68- 1.66-
170303 V03 1.65- .879-    170303 V03 1.31+ .405+    170303 V03 1.68+ .359+
170303 V03 3.09- 1.80-    170303 V03 .916- .300-    170303 V03 1.38+ .378+
170303 V03 .919+ .550+    170303 V03 3.32+ 1.05+    170303 V03 .092- .030+
170303 V03 1.41- .218-    170303 V03 4.30- 1.22-    170303 V03 1.55- .509-
170303 V03 .037- .080-    170303 V03 2.11+ .835+    170303 V03 .715+ 8.4m+
170303 V03 1.02- .751-    170303 V03 .763+ .457+

Residuals in seconds along-track and arcseconds cross-track: 
170303 V03 +.50s .053+    170303 V03 +.49s .101+    170303 V03 -.78s 3.1m+
170303 V03 -.22s .025+    170303 V03 +.17s .109+    170303 V03 +.23s 8.1m-
170303 V03 -.41s .196+    170303 V03 -.13s .022+    170303 V03 +.20s .091-
170303 V03 +.12s .077-    170303 V03 +.46s .057-    170303 V03 -12ms .048-
170303 V03 -.16s .437-    170303 V03 -.59s .059-    170303 V03 -.22s .193+
170303 V03 -08ms .060+    170303 V03 +.30s .202-    170303 V03 +96ms .131+
170303 V03 -.15s .308+    170303 V03 +.11s .223-


Ephemerides (geocentric):
Date (UTC) HH:MM   RA              Dec         delta   r     elong  mag " sig PA
---- -- -- -----  ------------   ------------  ------ ------ -----  --- ---- ---
2017 03 03 06:00  09 55 05.335   +60 12 48.41   40652 0.9915 125.4 12.1  3.6  38
2017 03 03 06:10  10 06 26.234   +60 49 25.58   41298 0.9915 125.2 12.1  0.5 178
2017 03 03 06:20  10 17 51.066   +61 21 24.48   41888 0.9915 125.0 12.2  2.0  50
2017 03 03 06:30  10 29 19.198   +61 48 58.93   42423 0.9916 124.8 12.2  3.4  40
2017 03 03 06:40  10 40 49.838   +62 12 20.74   42905 0.9916 124.5 12.2  4.2  31
2017 03 03 06:50  10 52 22.066   +62 31 40.07   43334 0.9916 124.3 12.3  4.6  17
2017 03 03 07:00  11 03 54.856   +62 47 05.71   43711 0.9916 124.0 12.3  5.1 179
2017 03 03 07:10  11 15 27.104   +62 58 45.33   44037 0.9916 123.7 12.3  6.3 158
2017 03 03 07:20  11 26 57.659   +63 06 45.68   44312 0.9916 123.4 12.3  8.5 142
2017 03 03 07:30  11 38 25.351   +63 11 12.69   44537 0.9916 123.1 12.4   11 131
2017 03 03 07:40  11 49 49.018   +63 12 11.59   44712 0.9916 122.8 12.4   16 125
2017 03 03 07:50  12 01 07.536   +63 09 46.99   44838 0.9916 122.4 12.4   21 121
2017 03 03 08:00  12 12 19.843   +63 04 02.88   44914 0.9916 122.0 12.4   27 119
2017 03 03 08:10  12 23 24.963   +62 55 02.65   44942 0.9916 121.7 12.4   34 119
2017 03 03 08:20  12 34 22.020   +62 42 49.11   44920 0.9916 121.3 12.4   42 118
2017 03 03 08:30  12 45 10.256   +62 27 24.43   44849 0.9916 120.9 12.4   50 119
2017 03 03 08:40  12 55 49.042   +62 08 50.06   44729 0.9916 120.4 12.4   60 119
2017 03 03 08:50  13 06 17.882   +61 47 06.73   44559 0.9916 120.0 12.5   71 120
2017 03 03 09:00  13 16 36.420   +61 22 14.31   44340 0.9916 119.5 12.5   83 121
2017 03 03 09:10  13 26 44.436   +60 54 11.74   44070 0.9916 119.1 12.5   97 122
2017 03 03 09:20  13 36 41.848   +60 22 56.91   43750 0.9916 118.6 12.5  111 124
2017 03 03 09:30  13 46 28.708   +59 48 26.48   43379 0.9916 118.0 12.5  128 125
2017 03 03 09:40  13 56 05.194   +59 10 35.79   42956 0.9916 117.5 12.4  145 126
2017 03 03 09:50  14 05 31.607   +58 29 18.61   42480 0.9916 116.9 12.4  165 128
2017 03 03 10:00  14 14 48.369   +57 44 26.91   41951 0.9915 116.3 12.4  187 129
2017 03 03 10:10  14 23 56.015   +56 55 50.60   41367 0.9915 115.7 12.4  212 131
2017 03 03 10:20  14 32 55.192   +56 03 17.18   40728 0.9915 115.0 12.4  239 132
2017 03 03 10:30  14 41 46.664   +55 06 31.30   40032 0.9915 114.3 12.4  269 133
2017 03 03 10:40  14 50 31.309   +54 05 14.20   39277 0.9915 113.6 12.4  304 135
2017 03 03 10:50  14 59 10.128   +52 59 03.10   38462 0.9915 112.8 12.4  342 136
2017 03 03 11:00  15 07 44.262   +51 47 30.23   37585 0.9915 111.9 12.3  386 137
2017 03 03 11:10  15 16 15.009   +50 30 01.77   36644 0.9915 111.0 12.3  435 139
2017 03 03 11:20  15 24 43.849   +49 05 56.29   35636 0.9915 110.0 12.3  492 140
2017 03 03 11:30  15 33 12.493   +47 34 22.79   34560 0.9915 109.0 12.2  558 141
2017 03 03 11:40  15 41 42.932   +45 54 18.00   33412 0.9915 107.8 12.2  635 143
2017 03 03 11:50  15 50 17.527   +44 04 22.58   32189 0.9915 106.6 12.2  726 144
2017 03 03 12:00  15 58 59.128   +42 02 55.96   30887 0.9915 105.2 12.1  833 145
2017 03 03 12:10  16 07 51.243   +39 47 48.75   29502 0.9915 103.7 12.1  963 146
2017 03 03 12:20  16 16 58.312   +37 16 11.81   28030 0.9915 102.0 12.0 1123 147
2017 03 03 12:30  16 26 26.109   +34 24 19.54   26466 0.9915 100.1 12.0 1321 149